User: anonymous   Login
Location: Bandys
(35.4750°N, 81.0830°W)
Time: 21:35:32
(UTC-05:00)
Language:

DELTA 2 R/B (1) - Orbit

View from above orbital plane
View from above orbital plane
View from above satellite
View from above satellite

Ground track
Ground track

The orbit data is extracted from the following two-line orbital elements,

1 27665U 03005C   17052.90389194  .00000042  00000-0  50306-4 0  9996
2 27665  39.5771 337.2627 0009925 239.4869 178.1523 14.28434510734447
Epoch (UTC): 21 February 2017 21:41:36
Eccentricity: 0.0009925
inclination: 39.5771°
perigee height: 790 km
apogee height: 804 km
right ascension of ascending node: 337.2627°
argument of perigee: 239.4869°
revolutions per day: 14.28434510
mean anomaly at epoch: 178.1523°
orbit number at epoch: 73444

The dashed part of the orbit path shows where the satellite is in the earth's shadow,  

DLR